Location: ?????????
(44.2517°N, 135.2292°E)
Time: 15:36:18
(UTC+00:00)

ISS - Visible Passes

Search period start: 20 January 2026 00:00
Search period end: 30 January 2026 00:00
Orbit: 413 x 424 km, 51.6° (Epoch: 20 January)

Date Brightness Start Highest point End Pass type
(mag) Time Alt. Az. Time Alt. Az. Time Alt. Az.
20 Jan -2.1 09:09:38 10° WNW 09:12:24 23° N 09:13:40 19° NNE visible
21 Jan -2.3 08:21:28 10° WNW 08:24:20 26° NNW 08:27:14 10° NE visible
21 Jan -1.6 09:59:02 10° NW 10:00:41 20° NNW 10:00:41 20° NNW visible
22 Jan -2.2 09:11:01 10° NW 09:13:44 22° N 09:14:45 19° NNE visible
23 Jan -2.1 08:22:52 10° NW 08:25:35 22° N 08:28:17 10° NE visible
23 Jan -2.0 09:59:55 10° NW 10:01:45 25° NNW 10:01:45 25° NNW visible
24 Jan -2.5 09:11:55 10° NW 09:14:51 27° NNE 09:15:49 23° NE visible
24 Jan -0.4 10:48:34 10° WNW 10:48:46 11° WNW 10:48:46 11° WNW visible
25 Jan -2.3 08:23:51 10° NW 08:26:39 24° N 08:29:26 10° ENE visible
25 Jan -2.7 10:00:32 10° NW 10:02:53 40° NW 10:02:53 40° NW visible
26 Jan -3.3 09:12:30 10° NW 09:15:42 43° NNE 09:17:03 28° ENE visible
26 Jan -0.5 10:49:23 10° WNW 10:50:01 14° W 10:50:01 14° W visible
27 Jan -3.1 10:01:06 10° WNW 10:04:17 53° SW 10:04:17 53° SW visible
28 Jan -3.8 09:12:54 10° WNW 09:16:14 87° SW 09:18:42 17° ESE visible
28 Jan -0.5 10:51:01 10° WSW 10:51:41 12° WSW 10:51:41 12° WSW visible
29 Jan -1.3 10:01:57 10° W 10:04:31 20° SW 10:06:19 14° S visible
